Location: Unspecified
(0.0000°N, 0.0000°E)
Time: 10:33:25
(UTC+00:00)

A-11 Canister half - Pass Details

Date: 08 August 2021
Orbit: 1515 x 1685 km, 47.2° (Epoch: 27 September)

Event Time Altitude Azimuth Distance (km) Brightness Sun altitude
Rises 09:48:15 0° 191° (S) 4,661 11.3 52.5°
Reaches altitude 10° 09:52:44 10° 172° (S) 3,673 11.0 53.5°
Maximum altitude 09:58:24 18° 133° (SE) 3,112 11.0 54.8°
Drops below altitude 10° 10:04:05 10° 95° (E) 3,692 11.6 56.0°
Sets 10:08:32 0° 77° (ENE) 4,694 12.0 57.0°
